�N����,����,�~����,�C��,���x,�C��,����,���ϕ���,�ő�u�ԕ���,�ő厞����,���˗�,�I�_���x,�n�����x,�ő啗���N��,DTYPE
"18/08/13","00:10",0.0,26.2,84.5,1005.0,268.9,1.1,2.0,335.5,0.00,23.4,28.0,"00:08:02",1
"18/08/13","00:20",0.0,26.2,84.0,1005.2,311.4,0.6,1.4,333.8,0.00,23.3,27.9,"00:12:58",1
"18/08/13","00:30",0.0,26.1,84.0,1005.0,356.3,0.8,2.2,340.9,0.00,23.2,28.1,"00:26:16",1
"18/08/13","00:40",0.0,26.0,84.9,1005.0,318.2,0.5,1.3,320.5,0.00,23.3,28.0,"00:30:58",1
"18/08/13","00:50",0.0,25.8,85.6,1004.8,277.8,0.5,1.1,329.4,0.00,23.2,27.8,"00:48:16",1
"18/08/13","01:00",0.0,25.7,85.2,1004.8,312.1,0.5,0.9,354.0,0.00,23.1,27.6,"00:59:44",1
"18/08/13","01:10",0.0,25.8,85.1,1005.2,352.0,0.3,1.2,7.8,0.00,23.1,27.8,"01:09:16",1
"18/08/13","01:20",0.0,25.7,84.5,1005.0,297.9,0.7,1.2,340.7,0.00,22.9,27.7,"01:11:04",1
"18/08/13","01:30",0.0,25.5,85.3,1005.2,294.5,0.6,1.1,309.0,0.00,22.9,27.5,"01:20:56",1
"18/08/13","01:40",0.0,25.5,86.1,1005.0,317.2,0.8,1.2,317.0,0.00,23.0,27.7,"01:37:52",1
"18/08/13","01:50",0.0,25.3,86.6,1005.2,307.4,0.8,1.1,318.4,0.00,22.9,27.5,"01:44:16",1
"18/08/13","02:00",0.0,25.3,86.3,1005.2,304.1,0.7,1.3,333.4,0.00,22.9,27.5,"01:59:36",1
"18/08/13","02:10",0.0,25.4,86.1,1005.0,311.1,1.0,2.0,324.4,0.00,22.9,27.3,"02:08:40",1
"18/08/13","02:20",0.0,25.6,85.6,1005.0,327.6,1.1,2.8,334.4,0.00,23.0,27.6,"02:18:40",1
"18/08/13","02:30",0.0,25.7,84.8,1005.0,336.2,1.5,2.6,339.2,0.00,23.0,27.2,"02:26:40",1
"18/08/13","02:40",0.0,25.6,84.4,1005.2,330.5,0.8,1.9,341.7,0.00,22.8,27.4,"02:30:32",1
"18/08/13","02:50",0.0,25.2,85.2,1005.2,110.3,0.3,0.8,113.5,0.00,22.6,27.3,"02:46:56",1
"18/08/13","03:00",0.0,24.9,86.5,1005.0,331.9,0.8,1.4,341.7,0.00,22.5,27.2,"02:52:48",1
"18/08/13","03:10",0.0,24.9,86.8,1005.2,304.7,0.7,1.7,338.9,0.00,22.6,27.1,"03:04:48",1
"18/08/13","03:20",0.0,24.7,87.2,1005.5,268.3,0.2,0.6,321.4,0.00,22.5,27.1,"03:10:16",1
"18/08/13","03:30",0.0,24.6,88.1,1005.5,289.7,0.8,1.2,317.5,0.00,22.5,27.1,"03:23:36",1
"18/08/13","03:40",0.0,24.8,87.8,1005.7,305.1,0.6,0.9,269.4,0.00,22.7,27.0,"03:32:16",1
"18/08/13","03:50",0.0,24.6,87.6,1005.2,323.1,0.5,0.8,326.4,0.00,22.4,26.9,"03:41:20",1
"18/08/13","04:00",0.0,24.3,88.3,1005.7,286.1,0.5,0.6,310.2,0.00,22.3,26.9,"03:56:48",1
"18/08/13","04:10",0.0,24.2,89.0,1005.5,307.4,0.8,1.4,323.4,0.00,22.3,27.1,"04:08:16",1
"18/08/13","04:20",0.0,24.3,89.0,1005.7,344.0,0.6,1.4,335.4,0.00,22.4,26.8,"04:10:02",1
"18/08/13","04:30",0.0,24.2,89.4,1005.2,333.2,1.2,1.6,339.8,0.00,22.4,26.8,"04:20:40",1
"18/08/13","04:40",0.0,24.0,89.6,1005.7,318.6,0.6,1.1,337.1,0.00,22.2,26.6,"04:30:08",1
"18/08/13","04:50",0.0,23.9,90.6,1005.7,341.5,0.8,1.4,325.9,0.00,22.3,26.7,"04:48:24",1
"18/08/13","05:00",0.0,23.9,90.4,1005.7,319.6,0.7,1.3,327.2,0.00,22.3,26.7,"04:56:48",1
"18/08/13","05:10",0.0,23.8,91.3,1006.0,323.4,1.1,1.3,333.3,0.00,22.3,26.7,"05:07:28",1
"18/08/13","05:20",0.0,23.8,91.3,1005.7,295.8,0.7,1.2,324.2,0.00,22.3,26.7,"05:18:16",1
"18/08/13","05:30",0.0,23.7,91.7,1006.0,295.5,0.7,1.0,315.1,0.00,22.3,26.4,"05:23:28",1
"18/08/13","05:40",0.0,23.8,91.5,1006.2,290.9,0.7,1.1,313.1,0.00,22.4,26.5,"05:34:56",1
"18/08/13","05:50",0.0,23.9,91.3,1006.0,296.3,0.6,0.9,310.6,0.00,22.4,26.5,"05:42:08",1
"18/08/13","06:00",0.0,24.0,91.6,1006.0,312.6,0.8,1.2,323.9,0.00,22.6,26.4,"05:56:40",1
"18/08/13","06:10",0.0,24.2,91.3,1006.2,338.0,0.7,1.1,339.7,0.00,22.7,26.4,"06:04:16",1
"18/08/13","06:20",0.0,24.7,90.9,1006.0,317.2,0.6,1.0,330.5,0.00,23.2,26.3,"06:10:32",1
"18/08/13","06:30",0.0,25.3,89.9,1006.0,307.6,0.3,0.8,324.9,0.02,23.6,26.5,"06:20:16",1
"18/08/13","06:40",0.0,26.2,87.8,1006.2,345.5,0.2,0.8,338.4,0.02,24.1,26.5,"06:30:16",1
"18/08/13","06:50",0.0,26.4,85.8,1006.0,347.2,0.2,0.9,336.2,0.02,23.9,26.7,"06:40:48",1
"18/08/13","07:00",0.0,26.2,86.0,1006.0,337.7,1.1,1.7,343.1,0.03,23.7,26.7,"06:56:48",1
"18/08/13","07:10",0.0,27.4,81.3,1006.0,29.4,0.3,1.0,28.0,0.07,24.0,26.9,"07:01:52",1
"18/08/13","07:20",0.0,28.3,79.1,1005.7,22.1,0.5,1.0,9.8,0.11,24.4,27.0,"07:17:36",1
"18/08/13","07:30",0.0,28.6,75.3,1005.7,11.7,0.5,1.0,337.3,0.11,23.8,27.1,"07:23:52",1
"18/08/13","07:40",0.0,29.1,73.4,1005.7,81.9,0.6,1.1,66.4,0.15,23.9,27.0,"07:37:04",1
"18/08/13","07:50",0.0,28.9,74.2,1006.0,151.7,0.8,1.8,109.0,0.14,23.9,27.4,"07:40:48",1
"18/08/13","08:00",0.0,29.9,70.4,1006.4,61.1,0.5,1.2,7.8,0.20,24.0,27.8,"07:58:00",1
"18/08/13","08:10",0.0,30.6,69.2,1006.7,57.4,0.6,1.9,9.8,0.24,24.3,27.6,"08:08:24",1
"18/08/13","08:20",0.0,30.7,68.6,1006.9,25.7,1.0,1.9,25.8,0.25,24.3,28.1,"08:16:00",1
"18/08/13","08:30",0.0,30.6,68.5,1006.9,48.4,1.0,2.2,23.8,0.30,24.2,28.2,"08:27:36",1
"18/08/13","08:40",0.0,31.5,65.6,1007.4,99.4,0.7,1.8,145.9,0.30,24.3,28.5,"08:34:40",1
"18/08/13","08:50",0.0,30.7,69.6,1007.4,124.4,1.1,2.2,128.2,0.25,24.5,29.0,"08:44:56",1
"18/08/13","09:00",0.0,30.8,68.5,1007.6,123.9,0.8,2.0,127.0,0.20,24.4,28.8,"08:50:02",1
"18/08/13","09:10",0.0,31.5,67.3,1007.4,141.3,1.3,3.4,139.8,0.29,24.7,29.2,"09:04:56",1
"18/08/13","09:20",0.0,32.3,68.6,1007.6,181.7,1.7,4.2,221.4,0.34,25.8,29.2,"09:12:08",1
"18/08/13","09:30",0.0,31.6,68.6,1007.6,156.6,1.5,3.5,195.4,0.25,25.2,29.5,"09:22:08",1
"18/08/13","09:40",0.0,31.4,67.6,1007.6,170.9,1.0,2.5,136.7,0.22,24.7,29.6,"09:32:00",1
"18/08/13","09:50",0.0,32.3,65.9,1007.8,137.8,1.1,2.4,126.7,0.31,25.1,29.9,"09:49:44",1
"18/08/13","10:00",0.0,32.5,64.4,1008.1,94.6,0.7,1.7,119.1,0.33,25.0,30.1,"09:57:44",1
"18/08/13","10:10",0.0,31.8,67.2,1007.8,45.5,0.6,1.7,19.4,0.14,25.0,30.3,"10:05:28",1
"18/08/13","10:20",0.0,31.4,67.1,1007.6,104.6,0.7,1.4,125.6,0.12,24.6,30.2,"10:14:16",1
"18/08/13","10:30",0.0,32.6,63.8,1007.6,194.8,1.2,2.5,215.8,0.41,24.9,30.5,"10:25:52",1
"18/08/13","10:40",0.0,33.6,60.3,1007.8,177.6,1.3,4.8,208.2,0.56,24.9,30.9,"10:39:52",1
"18/08/13","10:50",0.0,33.7,61.0,1008.1,197.8,1.3,4.0,191.3,0.48,25.2,31.1,"10:40:08",1
"18/08/13","11:00",0.0,33.9,59.6,1008.1,187.4,2.2,4.0,216.7,0.50,25.0,31.3,"10:50:02",1
"18/08/13","11:10",0.0,33.2,60.1,1007.8,172.1,1.8,4.1,195.5,0.28,24.5,31.6,"11:00:56",1
"18/08/13","11:20",0.0,33.2,60.9,1008.1,192.4,0.8,2.5,139.0,0.18,24.7,31.7,"11:15:04",1
"18/08/13","11:30",0.0,33.2,61.6,1007.6,235.4,1.2,3.1,215.6,0.19,24.9,31.7,"11:20:48",1
"18/08/13","11:40",0.0,34.4,58.4,1007.8,222.6,1.1,3.4,226.1,0.42,25.1,31.7,"11:36:16",1
"18/08/13","11:50",0.0,34.2,57.2,1007.8,226.8,1.5,3.2,224.8,0.59,24.6,32.3,"11:40:24",1
"18/08/13","12:00",0.0,35.6,54.8,1008.1,179.3,1.7,4.2,209.4,0.63,25.1,32.6,"11:56:40",1
"18/08/13","12:10",0.0,35.8,54.8,1008.1,165.5,2.1,4.4,201.5,0.66,25.3,32.9,"12:00:48",1
"18/08/13","12:20",0.0,35.2,53.4,1008.3,187.4,2.0,4.4,224.2,0.65,24.3,33.3,"12:15:20",1
"18/08/13","12:30",0.0,35.7,51.5,1008.3,209.1,1.3,3.7,229.8,0.63,24.2,33.7,"12:27:36",1
"18/08/13","12:40",0.0,36.0,53.0,1008.3,76.3,1.2,3.2,203.9,0.57,24.9,33.8,"12:39:52",1
"18/08/13","12:50",0.0,36.3,50.1,1007.8,235.8,1.5,4.5,223.4,0.46,24.3,34.2,"12:41:04",1
"18/08/13","13:00",0.0,35.7,51.9,1008.1,270.9,1.2,4.5,235.3,0.57,24.3,34.3,"12:50:02",1
"18/08/13","13:10",0.0,35.3,52.5,1007.8,256.8,1.2,3.6,227.0,0.44,24.1,34.4,"13:00:02",1
"18/08/13","13:20",0.0,35.9,50.9,1007.1,221.2,1.1,2.8,239.5,0.41,24.2,34.4,"13:10:08",1
"18/08/13","13:30",0.0,37.3,48.4,1007.1,15.5,1.1,3.1,332.8,0.39,24.6,34.3,"13:21:12",1
"18/08/13","13:40",0.0,36.8,47.6,1006.7,333.7,1.3,3.4,334.5,0.52,23.9,34.7,"13:38:48",1
"18/08/13","13:50",0.0,36.9,45.2,1006.9,327.8,1.5,3.1,353.8,0.57,23.1,34.9,"13:46:00",1
"18/08/13","14:00",0.0,37.8,44.4,1007.1,308.4,1.0,2.4,224.1,0.58,23.6,34.9,"13:50:56",1
"18/08/13","14:10",0.0,37.2,44.7,1007.4,194.2,2.2,4.1,223.9,0.59,23.2,35.0,"14:04:32",1
"18/08/13","14:20",0.0,37.4,44.5,1006.9,229.0,1.6,4.9,228.8,0.51,23.3,35.1,"14:19:36",1
"18/08/13","14:30",0.0,38.0,43.1,1006.9,249.9,1.5,3.2,211.6,0.53,23.3,35.1,"14:28:56",1
"18/08/13","14:40",0.0,37.3,45.6,1006.7,290.1,1.6,4.8,341.9,0.41,23.6,35.0,"14:39:20",1
"18/08/13","14:50",0.0,36.2,50.5,1006.7,305.4,2.1,5.7,353.5,0.45,24.3,35.0,"14:42:00",1
"18/08/13","15:00",0.0,35.4,52.6,1006.0,279.5,1.3,2.9,337.1,0.16,24.3,34.8,"14:50:08",1
"18/08/13","15:10",0.0,35.2,53.8,1005.2,268.5,1.5,3.9,228.0,0.11,24.5,34.7,"15:09:28",1
"18/08/13","15:20",0.0,35.5,53.6,1005.5,252.2,1.5,6.4,235.6,0.18,24.7,34.5,"15:10:40",1
"18/08/13","15:30",0.0,37.0,50.2,1005.7,265.5,1.5,4.7,229.5,0.45,25.0,34.6,"15:28:00",1
"18/08/13","15:40",0.0,37.1,48.6,1006.2,250.5,1.5,3.7,331.7,0.43,24.5,34.8,"15:38:16",1
"18/08/13","15:50",0.0,34.0,58.3,1006.0,59.2,2.3,8.2,342.4,0.07,24.7,34.5,"15:40:40",1
"18/08/13","16:00",0.0,31.4,66.6,1005.2,83.8,1.7,4.2,37.1,0.03,24.5,34.2,"15:53:44",1
"18/08/13","16:10",0.2,29.3,73.5,1004.3,71.5,1.8,5.4,32.8,0.04,24.1,33.8,"16:06:42",1
"18/08/13","16:20",4.8,27.6,82.7,1003.4,63.2,1.5,3.9,8.2,0.16,24.4,33.6,"16:17:14",1
"18/08/13","16:30",1.2,27.6,82.2,1002.6,354.3,1.3,3.4,67.6,0.08,24.3,33.2,"16:20:48",1
"18/08/13","16:40",2.0,27.9,82.3,1002.9,156.1,1.0,2.0,352.3,0.07,24.6,32.7,"16:30:08",1
"18/08/13","16:50",0.0,28.4,82.8,1002.9,233.8,0.3,0.9,218.9,0.09,25.2,32.5,"16:41:44",1
"18/08/13","17:00",0.0,28.2,82.6,1002.9,147.8,1.0,1.9,124.8,0.03,25.0,32.3,"16:53:12",1
"18/08/13","17:10",0.0,28.0,83.0,1003.6,211.9,1.7,3.3,225.9,0.01,24.9,31.9,"17:06:24",1
"18/08/13","17:20",0.0,28.2,83.7,1003.6,287.5,0.8,2.1,229.4,0.00,25.2,31.9,"17:13:28",1
"18/08/13","17:30",0.0,28.2,84.2,1004.3,303.7,0.7,1.3,341.1,0.00,25.3,31.4,"17:26:00",1
"18/08/13","17:40",0.0,27.7,85.0,1004.3,322.0,1.2,3.2,345.7,0.00,25.0,31.6,"17:39:36",1
"18/08/13","17:50",0.0,27.8,82.7,1003.6,319.0,1.8,3.6,340.5,0.00,24.6,31.3,"17:43:52",1
"18/08/13","18:00",0.0,27.5,82.2,1004.3,322.1,2.5,5.8,331.4,0.00,24.2,31.2,"17:57:44",1
"18/08/13","18:10",0.0,26.9,80.9,1004.3,312.6,1.5,4.1,336.5,0.00,23.4,31.0,"18:07:20",1
"18/08/13","18:20",0.0,27.0,79.1,1004.5,283.3,1.1,4.0,331.8,0.00,23.1,30.9,"18:10:48",1
"18/08/13","18:30",0.0,27.2,80.5,1004.5,302.6,0.7,2.2,288.8,0.00,23.6,30.5,"18:23:12",1
"18/08/13","18:40",0.0,27.3,80.8,1005.0,284.3,1.1,2.9,340.7,0.00,23.8,30.4,"18:39:28",1
"18/08/13","18:50",0.0,27.3,78.2,1005.2,338.6,2.5,4.0,342.7,0.00,23.2,30.3,"18:43:52",1
"18/08/13","19:00",0.0,27.3,75.7,1005.7,333.1,2.2,3.5,337.1,0.00,22.7,30.2,"18:55:52",1
"18/08/13","19:10",0.0,27.2,77.7,1005.7,311.6,1.7,4.1,341.7,0.00,23.0,30.0,"19:01:20",1
"18/08/13","19:20",0.0,26.9,80.1,1005.5,312.7,1.5,3.1,332.6,0.00,23.2,29.9,"19:17:44",1
"18/08/13","19:30",0.0,26.7,80.0,1005.2,320.3,2.1,4.9,344.1,0.00,23.0,29.7,"19:23:20",1
"18/08/13","19:40",0.0,26.6,80.1,1006.0,319.8,1.3,2.8,339.3,0.00,22.9,29.5,"19:38:48",1
"18/08/13","19:50",0.0,26.6,79.5,1006.0,307.5,1.0,2.4,345.8,0.00,22.8,29.5,"19:40:08",1
"18/08/13","20:00",0.0,26.6,80.4,1005.5,335.2,1.5,3.1,344.8,0.00,23.0,29.3,"19:55:52",1
"18/08/13","20:10",0.0,26.5,81.4,1006.0,303.0,0.8,1.8,323.2,0.00,23.1,29.2,"20:00:16",1
"18/08/13","20:20",0.0,26.4,82.3,1005.7,308.6,0.8,1.8,333.2,0.00,23.2,29.2,"20:13:12",1
"18/08/13","20:30",0.0,26.1,84.1,1005.5,267.3,0.7,1.3,248.2,0.00,23.2,28.9,"20:25:52",1
"18/08/13","20:40",0.0,26.1,84.7,1006.0,306.8,0.8,1.7,267.0,0.00,23.4,28.8,"20:30:24",1
"18/08/13","20:50",0.0,26.1,85.4,1006.2,315.9,0.8,1.6,339.0,0.00,23.5,28.8,"20:43:52",1
"18/08/13","21:00",0.0,26.0,86.2,1006.2,309.3,0.8,1.6,323.8,0.00,23.6,28.8,"20:59:52",1
"18/08/13","21:10",0.0,26.1,86.4,1006.4,332.8,1.5,2.6,330.7,0.00,23.7,28.9,"21:03:28",1
"18/08/13","21:20",0.0,26.0,86.6,1006.2,301.1,0.6,1.4,322.5,0.00,23.6,28.8,"21:15:52",1
"18/08/13","21:30",0.0,26.0,86.6,1006.2,328.4,1.1,2.2,349.3,0.00,23.6,28.7,"21:21:12",1
"18/08/13","21:40",0.0,26.0,86.7,1006.4,314.4,1.0,1.8,338.8,0.00,23.6,28.5,"21:35:44",1
"18/08/13","21:50",0.0,25.8,87.0,1006.0,262.5,1.0,2.1,234.6,0.00,23.5,28.6,"21:48:48",1
"18/08/13","22:00",0.0,25.8,87.0,1006.4,309.8,0.8,1.4,332.1,0.00,23.5,28.4,"21:56:24",1
"18/08/13","22:10",0.0,25.8,87.0,1006.4,275.6,0.8,2.0,261.7,0.00,23.5,28.3,"22:05:28",1
"18/08/13","22:20",0.0,25.8,87.1,1006.2,307.7,0.8,1.8,322.5,0.00,23.5,28.2,"22:19:20",1
"18/08/13","22:30",0.0,25.8,87.1,1006.2,320.2,1.0,1.8,353.8,0.00,23.5,28.2,"22:22:16",1
"18/08/13","22:40",0.0,25.8,87.1,1006.2,331.8,1.0,2.5,346.7,0.00,23.5,28.3,"22:31:28",1
"18/08/13","22:50",0.0,25.7,87.2,1006.4,322.4,1.1,2.4,340.0,0.00,23.5,27.9,"22:46:00",1
"18/08/13","23:00",0.0,25.7,87.1,1006.7,288.7,0.8,1.6,323.2,0.00,23.4,28.0,"22:51:44",1
"18/08/13","23:10",0.0,25.7,87.1,1006.4,314.3,1.1,2.6,347.0,0.00,23.4,28.0,"23:03:52",1
"18/08/13","23:20",0.0,25.7,87.2,1006.4,317.3,1.2,2.4,322.0,0.00,23.5,28.0,"23:14:56",1
"18/08/13","23:30",0.0,25.9,87.0,1006.7,335.5,1.8,2.9,349.5,0.00,23.6,27.9,"23:23:04",1
"18/08/13","23:40",0.0,25.8,87.1,1006.4,338.0,1.5,3.2,332.4,0.00,23.5,28.0,"23:38:48",1
"18/08/13","23:50",0.0,25.8,87.1,1006.4,329.6,1.6,2.7,342.6,0.00,23.5,27.8,"23:44:56",1
"18/08/13","24:00",0.0,25.9,87.1,1006.2,329.6,1.7,3.1,345.7,0.00,23.6,27.9,"23:54:40",1
